Air Resources Laboratory banner image
Air Resources Laboratory web site National Oceanic and Atmospheric Administration (NOAA)

nj roundup


Office: PHI

ASUS41 KPHI 102314
RWRPHI

REGIONAL WEATHER ROUNDUP
NATIONAL WEATHER SERVICE MOUNT HOLLY NJ
700 PM EDT WED AUG 10 2022

NOTE:  "FAIR" INDICATES FEW OR NO CLOUDS BELOW 12,000 FEET WITH NO
SIGNIFICANT WEATHER AND/OR OBSTRUCTIONS TO VISIBILITY.

 * = STATION DOES NOT REPORT PRECIPITATION (E.G. RAIN, SNOW, ETC.)
        OR FOG.

NJZ015>026-110000-
SOUTHERN NEW JERSEY

CITY           SKY/WX    TMP DP  RH WIND       PRES   REMARKS
POMONA         MOSUNNY   80  71  74 SE7       29.99S
WILDWOOD*      MOSUNNY   82  73  74 SW5       30.00R
MILLVILLE      PTSUNNY   82  72  71 SE6       29.98R
WRIGHTSTOWN    MOSUNNY   82  71  69 SE6       29.97S
MOUNT HOLLY    PTSUNNY   86  71  60 SE3       29.97R HX  91
TRENTON        PTSUNNY   84  68  58 W6        29.96S

$$
NJZ001>014-110000-
NORTHERN NEW JERSEY

CITY           SKY/WX    TMP DP  RH WIND       PRES   REMARKS
SUSSEX         MOSUNNY   85  59  41 VRB3      29.98S
ANDOVER*         N/A     85  64  49 CALM      29.99S
MORRISTOWN     MOSUNNY   86  63  45 NW7       29.96F
NEWARK         PTSUNNY   82  66  58 S9        29.96S
TETERBORO      MOSUNNY   82  67  60 S12       29.94S
CALDWELL       MOSUNNY   86  60  41 W3        29.96S
SOMERVILLE     PTSUNNY   86  65  49 CALM      29.95S
ALLAIRE*       CLOUDY    79  72  79 S8        30.00S

$$
PAZ043-044-047-054-055-060>062-066>071-110000-
EASTERN PENNSYLVANIA

CITY           SKY/WX    TMP DP  RH WIND       PRES   REMARKS
PHILADELPHIA   PTSUNNY   89  69  51 SW7       29.97S HX  93
NORTH PHILA    MOSUNNY   87  67  51 NW6       29.97F HX  90
BLUE BELL*     MOSUNNY   85  69  58 MISG      29.99S
DOYLESTOWN     MOSUNNY   85  65  51 W5        29.98S
QUAKERTOWN*    SUNNY     84  66  54 W5        29.99F
PERKASIE*      MOCLDY    82  66  57 CALM      30.00F
POTTSTOWN      PTSUNNY   81  66  60 W5        30.00F
LANCASTER      PTSUNNY   84  67  56 W8        29.99S
COATESVILLE    PTSUNNY   81  70  69 CALM      30.02S
READING        PTSUNNY   84  65  52 W6        29.98R
ALLENTOWN      MOSUNNY   83  62  49 NW5       29.98S
QN CITY/ALNTWN PTSUNNY   82  66  57 SW5       29.99S
MOUNT POCONO   MOSUNNY   75  57  53 SW6       30.06S
HAZLETON       MOSUNNY   77  59  53 CALM      30.07S
LEHIGHTON      FAIR      82  57  42 CALM      30.00S
WILKES BARRE   MOSUNNY   82  56  40 VRB3      30.01S

$$
DEZALL-MDZ008-012-015-019-020-110000-
DELAWARE AND EASTERN MARYLAND

CITY           SKY/WX    TMP DP  RH WIND       PRES   REMARKS
WILMINGTON     PTSUNNY   85  70  60 NW5       29.99R
DOVER          LGT RAIN  81  75  83 S6        29.98R
CHESWOLD       MOCLDY    86  73  66 S5        29.98R HX  93
GEORGETOWN     PTSUNNY   86  75  69 S5        29.99R HX  95
EASTON         PTSUNNY   79  70  73 CALM      30.05R
PATUXENT       TSTM      78  69  73 W25G43    30.05
OCEAN CITY     NOT AVBL
WALLOPS ISLAND PTSUNNY   83  75  77 SW3       30.01R HX  90
SALISBURY      PTSUNNY   86  75  69 S7        29.99R HX  95

$$
PAZ001-021-NYZ056-072-MDZ011-DCZ001-110000-
OTHER NEARBY LOCATIONS

CITY           SKY/WX    TMP DP  RH WIND       PRES   REMARKS
HARRISBURG     PTSUNNY   84  66  54 W6        29.98S
STATE COLLEGE  MOSUNNY   81  66  61 SW6       30.02F
WILLIAMSPORT   MOSUNNY   82  57  42 SE3       29.97S
BINGHAMTON     MOSUNNY   72  55  55 N7        30.05F
NEW YORK CITY  MOSUNNY   81  67  62 VRB5      29.99S
BALTIMORE      TSTM      73  70  90 SW10      30.01S FOG
WASHINGTON DC  TSTM      76  73  91 S8        30.05R

$$




Office: OKX ASUS41 KOKX 102305 RWROKX Regional Weather Roundup National Weather Service New York NY 700 PM EDT WED AUG 10 2022 Note: "FAIR" indicates few or no clouds below 12,000 feet with no significant weather and/or obstructions to visibility. NYZ071-072-176-178-NJZ106-104-110000- New York City Metro Area CITY SKY/WX TMP DP RH WIND PRES REMARKS Central Park MOSUNNY 81 67 62 VRB5 29.99S World Trd Ctr NOT AVBL Bronx Lehman C N/A 82 68 61 S7 N/A LaGuardia Arpt MOSUNNY 82 66 58 S12 29.96S Queens College N/A 81 68 65 S10 N/A Kennedy Intl PTCLDY 78 71 79 SE10 29.98S Breezy Point N/A 73 N/A N/A S9 N/A Brooklyn Coll N/A 75 70 83 S12 N/A Staten Island N/A 79 68 69 S7 N/A Newark/Liberty PTSUNNY 82 66 58 S9 29.96S Teterboro MOSUNNY 82 67 60 S12 29.94S $$ NYZ177-179-078>081-110000- Long Island New York CITY SKY/WX TMP DP RH WIND PRES REMARKS Jones Beach N/A 75 N/A N/A S9 N/A Wantagh N/A 77 72 83 SE8 N/A Hempstead NOT AVBL Matinecock Pt N/A 81 N/A N/A S5G10 N/A Farmingdale CLEAR 78 69 73 SE10 29.98S MacArthur/ISP PTCLDY 77 69 76 S8 29.97F Stony Brook N/A 79 70 73 S6 N/A Shirley CLEAR 77 68 73 SE7 29.99S Mt Sinai Harb N/A 79 N/A N/A S8 N/A Westhampton CLEAR 75 70 84 S6 30.00F East Hampton MOCLDY 72 72 99 SE7 29.98F Southold N/A 75 70 83 S8 N/A Montauk N/A 74 69 85 VRB3 29.99F $$ NYZ052-065-067-110000- Hudson Valley CITY SKY/WX TMP DP RH WIND PRES REMARKS White Plains NOT AVBL Larchmont Harb N/A 79 N/A N/A S13 N/A Croton On Huds N/A 86 N/A N/A W1 N/A Somers N/A 81 59 47 NW1 N/A Brewster N/A 82 59 44 NW5 N/A Newburgh NOT AVBL Montgomery SUNNY 83 56 39 NW6 29.96F Otisville N/A 81 57 44 W2 N/A Warwick N/A 82 61 47 W3 N/A Suffern N/A 82 61 47 NW2 N/A Poughkeepsie SUNNY 85 58 39 NW6 29.95F Albany PTSUNNY 77 59 53 CALM 30.00F $$ NJZ001-105-106-008-010-013-015-019>022-104-110000- New Jersey CITY SKY/WX TMP DP RH WIND PRES REMARKS Newark/Liberty PTSUNNY 82 66 58 S9 29.96S Teterboro MOSUNNY 82 67 60 S12 29.94S Caldwell MOSUNNY 86 60 41 W3 29.96S Somerville PTSUNNY 86 65 49 CALM 29.95S Linden PTSUNNY 83 64 53 S8 29.97S Perth Amboy N/A 81 N/A N/A SE10 N/A Sussex MOSUNNY 85 59 41 VRB3 29.98S Andover N/A 85 64 49 CALM 29.99S Trenton PTSUNNY 84 68 58 W6 29.96S Millville PTSUNNY 82 72 71 SE6 29.98R Atlantic City SUNNY 80 71 74 SE7 29.99S Wrightstown MOSUNNY 82 71 69 SE6 29.97S Toms River NOT AVBL Belmar CLOUDY 79 72 79 S8 30.00S $$ PAZ047>061-062-071-110000- Eastern Pennsylvania CITY SKY/WX TMP DP RH WIND PRES REMARKS Philadelphia MOSUNNY 89 69 51 SW7 29.97S HX 93 Allentown MOSUNNY 83 62 49 NW5 29.98S Scranton SUNNY 82 56 40 VRB3 30.01S $$ CTZ002-004>006-009-010-012-RIZ004-006-007-MAZ004-011-015-110000- Southern New England In CT CITY SKY/WX TMP DP RH WIND PRES REMARKS Bradley Intl PTCLDY 80 58 46 N7 29.97F Hartford MOCLDY 84 58 40 N12 29.95F Danbury MOCLDY 83 64 52 S3 29.98F Wtrbury/Oxford MOCLDY 78 66 66 S8 30.00S Norwalk Harbor N/A 79 N/A N/A SE12 N/A Bridgeport CLEAR 79 65 62 E6 29.96S Meriden CLOUDY 81 63 54 S6 29.96F New Haven CLEAR 82 66 58 S5 29.97F Chester FAIR 81 66 61 S7 29.99R Groton PTCLDY 74 68 81 SE7 29.98F Willimantic MOCLDY 82 59 45 NW6 29.97F In RI CITY SKY/WX TMP DP RH WIND PRES REMARKS Providence MOCLDY 75 68 78 S12 29.99S Block Island PTCLDY 72 67 84 E7 30.00S Westerly CLEAR 73 68 84 SE9 29.99F In MA CITY SKY/WX TMP DP RH WIND PRES REMARKS Boston MOCLDY 67 63 87 E9 30.01S Worcester MOCLDY 77 60 55 NW5 30.01S Westfield CLEAR 80 56 43 N7 29.98F Provincetown NOT AVBL Nantucket CLOUDY 72 69 90 NE7 30.00S $$ ANZ330-335-338-340-345-350-353-355-110000- Coastal Marine Observations STATION/POSITION TIME SKY/WX TEMP WIND PRES VSBY WAVE AIR SEA DIR/SP/G HT/PER (UTC) (F) (DEG/KT/KT) (MB) (MI) (FT/S) NY Harb Entrance 2240 160/ 6/ 8 1014.1 20 S Fire Island 2240 76 1014.4 Great South Bay 2230 74 180/ 10/ 12 N/A 23 SSW Montauk P 2240 74 120/ 8/ 10 1015.1 15 E Barnegat Li 2226 78 N/A 3/ 6 Hudson Canyon 2250 76 78 80/ 6/ 8 1014.8 3/ 6 Kings Point 2224 80 74 160/ 11/ 12 1014.7 Execution Rocks 2245 80 180/ 10 N/A Western LI Sound 2245 81 160/ 8/ 12 N/A Central LI Sound NOT AVBL Robbins Reef 2224 74 170/ 14/ 16 1014.7 $$ >>>>>>>>>>>>>>>>>>>>>>>>>>>> KEY <<<<<<<<<<<<<<<<<<<<<<<<<<< > < > SKY/WX - Sky Condition/Present Weather < > TMP - Temperature in Fahrenheit < > DP - Dew Point in Fahrenheit < > RH - Relative Humidity in Percent < > WIND - Direction (from) and Speed in MPH < > PRES - Mean Sea Level Pressure (inches of Hg) < > WCI - Wind Chill Index < > VSB - Visibility in Miles < > HX - Heat Index < > TC - Temperature in Celsius < > VRB - Variable Wind Direction < > < >>>>>>>>>>>>>>>>>>>>>>>>>>>> KEY <<<<<<<<<<<<<<<<<<<<<<<<<<< ASUS41 KOKX 102311 RWROKX Regional Weather Roundup National Weather Service New York NY 700 PM EDT WED AUG 10 2022 Note: "FAIR" indicates few or no clouds below 12,000 feet with no significant weather and/or obstructions to visibility. NYZ071-072-176-178-NJZ106-104-110000- New York City Metro Area CITY SKY/WX TMP DP RH WIND PRES REMARKS Central Park MOSUNNY 81 67 62 VRB5 29.99S World Trd Ctr NOT AVBL Bronx Lehman C N/A 82 66 57 S10 N/A LaGuardia Arpt MOSUNNY 82 66 58 S12 29.96S Queens College N/A 81 68 65 S10 N/A Kennedy Intl PTCLDY 78 71 79 SE10 29.98S Breezy Point N/A 73 N/A N/A S9 N/A Brooklyn Coll N/A 75 70 83 SE9 N/A Staten Island N/A 79 68 69 S7 N/A Newark/Liberty PTSUNNY 82 66 58 S9 29.96S Teterboro MOSUNNY 82 67 60 S12 29.94S $$ NYZ177-179-078>081-110000- Long Island New York CITY SKY/WX TMP DP RH WIND PRES REMARKS Jones Beach N/A 75 N/A N/A S9 N/A Wantagh N/A 77 72 83 SE10 N/A Hempstead NOT AVBL Matinecock Pt N/A 81 N/A N/A S5G10 N/A Farmingdale CLEAR 78 69 73 SE10 29.98S MacArthur/ISP PTCLDY 77 69 76 S8 29.97F Stony Brook N/A 79 70 73 S6 N/A Shirley CLEAR 77 68 73 SE7 29.99S Mt Sinai Harb N/A 79 N/A N/A S8 N/A Westhampton PTCLDY 75 70 84 S5 30.00F East Hampton MOCLDY 72 72 99 SE7 29.98F Southold N/A 75 70 83 S8 N/A Montauk N/A 74 69 85 VRB3 29.99F $$ NYZ052-065-067-110000- Hudson Valley CITY SKY/WX TMP DP RH WIND PRES REMARKS White Plains MOSUNNY 81 70 69 S9 29.97S Larchmont Harb N/A 79 N/A N/A S13 N/A Croton On Huds N/A 86 N/A N/A W1 N/A Somers N/A 81 59 47 W1 N/A Brewster N/A 82 59 44 NW5 N/A Newburgh NOT AVBL Montgomery SUNNY 83 56 39 NW6 29.96F Otisville N/A 79 59 50 W1 N/A Warwick N/A 82 59 44 W5 N/A Suffern N/A 82 61 47 W2 N/A Poughkeepsie SUNNY 85 58 39 NW6 29.95F Albany PTSUNNY 77 59 53 CALM 30.00F $$ NJZ001-105-106-008-010-013-015-019>022-104-110000- New Jersey CITY SKY/WX TMP DP RH WIND PRES REMARKS Newark/Liberty PTSUNNY 82 66 58 S9 29.96S Teterboro MOSUNNY 82 67 60 S12 29.94S Caldwell MOSUNNY 86 60 41 W3 29.96S Somerville PTSUNNY 86 65 49 CALM 29.95S Linden PTSUNNY 83 64 53 S8 29.97S Perth Amboy N/A 81 N/A N/A SE10 N/A Sussex MOSUNNY 85 59 41 VRB3 29.98S Andover N/A 85 64 49 CALM 29.99S Trenton PTSUNNY 84 68 58 W6 29.96S Millville PTSUNNY 82 72 71 SE6 29.98R Atlantic City MOSUNNY 80 71 74 SE7 29.99S Wrightstown MOSUNNY 82 71 69 SE6 29.97S Toms River NOT AVBL Belmar CLOUDY 79 72 79 S8 30.00S $$ PAZ047>061-062-071-110000- Eastern Pennsylvania CITY SKY/WX TMP DP RH WIND PRES REMARKS Philadelphia PTSUNNY 89 69 51 SW7 29.97S HX 93 Allentown MOSUNNY 83 62 49 NW5 29.98S Scranton MOSUNNY 82 56 40 VRB3 30.01S $$ CTZ002-004>006-009-010-012-RIZ004-006-007-MAZ004-011-015-110000- Southern New England In CT CITY SKY/WX TMP DP RH WIND PRES REMARKS Bradley Intl PTCLDY 80 58 46 N7 29.97F Hartford MOCLDY 84 58 40 N12 29.95F Danbury MOCLDY 83 64 52 S3 29.98F Wtrbury/Oxford MOCLDY 78 66 66 S8 30.00S Norwalk Harbor N/A 79 N/A N/A SE12 N/A Bridgeport CLEAR 79 65 62 E6 29.96S Meriden CLOUDY 81 63 54 S6 29.96F New Haven CLEAR 82 66 58 S5 29.97F Chester FAIR 81 66 61 S7 29.99R Groton PTCLDY 74 68 81 SE7 29.98F Willimantic MOCLDY 82 59 45 NW6 29.97F In RI CITY SKY/WX TMP DP RH WIND PRES REMARKS Providence MOCLDY 75 68 78 S12 29.99S Block Island PTCLDY 72 67 84 E7 30.00S Westerly CLEAR 73 68 84 SE9 29.99F In MA CITY SKY/WX TMP DP RH WIND PRES REMARKS Boston MOCLDY 67 63 87 E9 30.01S Worcester MOCLDY 77 60 55 NW5 30.01S Westfield CLEAR 80 56 43 N7 29.98F Provincetown NOT AVBL Nantucket CLOUDY 72 69 90 NE7 30.00S $$ ANZ330-335-338-340-345-350-353-355-110000- Coastal Marine Observations STATION/POSITION TIME SKY/WX TEMP WIND PRES VSBY WAVE AIR SEA DIR/SP/G HT/PER (UTC) (F) (DEG/KT/KT) (MB) (MI) (FT/S) NY Harb Entrance 2250 72 160/ 6/ 8 1014.3 20 S Fire Island 2240 76 1014.4 Great South Bay 2230 74 180/ 10/ 12 N/A 23 SSW Montauk P 2250 74 130/ 8/ 8 1015.1 3/ 7 15 E Barnegat Li 2226 78 N/A 3/ 6 Hudson Canyon 2250 76 78 80/ 6/ 8 1014.8 3/ 6 Kings Point 2224 80 74 160/ 11/ 12 1014.7 Execution Rocks 2245 80 180/ 10 N/A Western LI Sound 2245 81 160/ 8/ 12 N/A Central LI Sound NOT AVBL Robbins Reef 2224 74 170/ 14/ 16 1014.7 $$ >>>>>>>>>>>>>>>>>>>>>>>>>>>> KEY <<<<<<<<<<<<<<<<<<<<<<<<<<< > < > SKY/WX - Sky Condition/Present Weather < > TMP - Temperature in Fahrenheit < > DP - Dew Point in Fahrenheit < > RH - Relative Humidity in Percent < > WIND - Direction (from) and Speed in MPH < > PRES - Mean Sea Level Pressure (inches of Hg) < > WCI - Wind Chill Index < > VSB - Visibility in Miles < > HX - Heat Index < > TC - Temperature in Celsius < > VRB - Variable Wind Direction < > < >>>>>>>>>>>>>>>>>>>>>>>>>>>> KEY <<<<<<<<<<<<<<<<<<<<<<<<<<< ASUS41 KOKX 102313 RWROKX Regional Weather Roundup National Weather Service New York NY 700 PM EDT WED AUG 10 2022 Note: "FAIR" indicates few or no clouds below 12,000 feet with no significant weather and/or obstructions to visibility. NYZ071-072-176-178-NJZ106-104-110000- New York City Metro Area CITY SKY/WX TMP DP RH WIND PRES REMARKS Central Park MOSUNNY 81 67 62 VRB5 29.99S World Trd Ctr NOT AVBL Bronx Lehman C NOT AVBL LaGuardia Arpt MOSUNNY 82 66 58 S12 29.96S Queens College NOT AVBL Kennedy Intl PTCLDY 78 71 79 SE10 29.98S Breezy Point NOT AVBL Brooklyn Coll NOT AVBL Staten Island NOT AVBL Newark/Liberty PTSUNNY 82 66 58 S9 29.96S Teterboro MOSUNNY 82 67 60 S12 29.94S $$ NYZ177-179-078>081-110000- Long Island New York CITY SKY/WX TMP DP RH WIND PRES REMARKS Jones Beach NOT AVBL Wantagh NOT AVBL Hempstead NOT AVBL Matinecock Pt NOT AVBL Farmingdale CLEAR 78 69 73 SE10 29.98S MacArthur/ISP PTCLDY 77 69 76 S8 29.97F Stony Brook NOT AVBL Shirley CLEAR 77 68 73 SE7 29.99S Mt Sinai Harb NOT AVBL Westhampton PTCLDY 75 70 84 S5 30.00F East Hampton MOCLDY 72 72 99 SE7 29.98F Southold NOT AVBL Montauk N/A 74 69 85 VRB3 29.99F $$ NYZ052-065-067-110000- Hudson Valley CITY SKY/WX TMP DP RH WIND PRES REMARKS White Plains MOSUNNY 81 70 69 S9 29.97S Larchmont Harb NOT AVBL Croton On Huds NOT AVBL Somers NOT AVBL Brewster NOT AVBL Newburgh NOT AVBL Montgomery SUNNY 83 56 39 NW6 29.96F Otisville NOT AVBL Warwick NOT AVBL Suffern NOT AVBL Poughkeepsie SUNNY 85 58 39 NW6 29.95F Albany PTSUNNY 77 59 53 CALM 30.00F $$ NJZ001-105-106-008-010-013-015-019>022-104-110000- New Jersey CITY SKY/WX TMP DP RH WIND PRES REMARKS Newark/Liberty PTSUNNY 82 66 58 S9 29.96S Teterboro MOSUNNY 82 67 60 S12 29.94S Caldwell MOSUNNY 86 60 41 W3 29.96S Somerville PTSUNNY 86 65 49 CALM 29.95S Linden PTSUNNY 83 64 53 S8 29.97S Perth Amboy NOT AVBL Sussex MOSUNNY 85 59 41 VRB3 29.98S Andover N/A 85 64 49 CALM 29.99S Trenton PTSUNNY 84 68 58 W6 29.96S Millville PTSUNNY 82 72 71 SE6 29.98R Atlantic City MOSUNNY 80 71 74 SE7 29.99S Wrightstown MOSUNNY 82 71 69 SE6 29.97S Toms River NOT AVBL Belmar CLOUDY 79 72 79 S8 30.00S $$ PAZ047>061-062-071-110000- Eastern Pennsylvania CITY SKY/WX TMP DP RH WIND PRES REMARKS Philadelphia PTSUNNY 89 69 51 SW7 29.97S HX 93 Allentown MOSUNNY 83 62 49 NW5 29.98S Scranton MOSUNNY 82 56 40 VRB3 30.01S $$ CTZ002-004>006-009-010-012-RIZ004-006-007-MAZ004-011-015-110000- Southern New England In CT CITY SKY/WX TMP DP RH WIND PRES REMARKS Bradley Intl PTCLDY 80 58 46 N7 29.97F Hartford MOCLDY 84 58 40 N12 29.95F Danbury MOCLDY 83 64 52 S3 29.98F Wtrbury/Oxford MOCLDY 78 66 66 S8 30.00S Norwalk Harbor NOT AVBL Bridgeport CLEAR 79 65 62 E6 29.96S Meriden CLOUDY 81 63 54 S6 29.96F New Haven CLEAR 82 66 58 S5 29.97F Chester FAIR 81 66 61 S7 29.99R Groton PTCLDY 74 68 81 SE7 29.98F Willimantic MOCLDY 82 59 45 NW6 29.97F In RI CITY SKY/WX TMP DP RH WIND PRES REMARKS Providence MOCLDY 75 68 78 S12 29.99S Block Island PTCLDY 72 67 84 E7 30.00S Westerly CLEAR 73 68 84 SE9 29.99F In MA CITY SKY/WX TMP DP RH WIND PRES REMARKS Boston MOCLDY 67 63 87 E9 30.01S Worcester MOCLDY 77 60 55 NW5 30.01S Westfield CLEAR 80 56 43 N7 29.98F Provincetown NOT AVBL Nantucket CLOUDY 72 69 90 NE7 30.00S $$ ANZ330-335-338-340-345-350-353-355-110000- Coastal Marine Observations STATION/POSITION TIME SKY/WX TEMP WIND PRES VSBY WAVE AIR SEA DIR/SP/G HT/PER (UTC) (F) (DEG/KT/KT) (MB) (MI) (FT/S) NY Harb Entrance 2250 72 160/ 6/ 8 1014.3 20 S Fire Island 2240 76 1014.4 Great South Bay 2230 74 180/ 10/ 12 N/A 23 SSW Montauk P 2250 74 130/ 8/ 8 1015.1 3/ 7 15 E Barnegat Li 2226 78 N/A 3/ 6 Hudson Canyon 2250 76 78 80/ 6/ 8 1014.8 3/ 6 Kings Point 2224 80 74 160/ 11/ 12 1014.7 Execution Rocks 2245 80 180/ 10 N/A Western LI Sound 2245 81 160/ 8/ 12 N/A Central LI Sound NOT AVBL Robbins Reef 2224 74 170/ 14/ 16 1014.7 $$ >>>>>>>>>>>>>>>>>>>>>>>>>>>> KEY <<<<<<<<<<<<<<<<<<<<<<<<<<< > < > SKY/WX - Sky Condition/Present Weather < > TMP - Temperature in Fahrenheit < > DP - Dew Point in Fahrenheit < > RH - Relative Humidity in Percent < > WIND - Direction (from) and Speed in MPH < > PRES - Mean Sea Level Pressure (inches of Hg) < > WCI - Wind Chill Index < > VSB - Visibility in Miles < > HX - Heat Index < > TC - Temperature in Celsius < > VRB - Variable Wind Direction < > < >>>>>>>>>>>>>>>>>>>>>>>>>>>> KEY <<<<<<<<<<<<<<<<<<<<<<<<<<<